This is the latest recevied weather packets stored in our database for station/object N8WJW. If no packets are shown the sender has not sent any weather packets the latest 10 day(s).
| Time | Temp. | Humidity | Pressure | Rain* | Wind** | Luminosity | Snow |
|---|---|---|---|---|---|---|---|
| 1777505374 | 8.33° C | 99% | 1011.3 hPa | 0 mm | - | 5 W/m² | - |
| 1777505070 | 8.33° C | 99% | 1011.3 hPa | 0 mm | - | 14 W/m² | - |
| 1777504767 | 8.33° C | 99% | 1011.3 hPa | 0 mm | - | 11 W/m² | - |
| 1777504465 | 8.33° C | 99% | 1011.3 hPa | 0 mm | - | 8 W/m² | - |
| 1777504160 | 8.33° C | 99% | 1011.1 hPa | 0 mm | - | 14 W/m² | - |
| 1777503856 | 8.33° C | 99% | 1010.8 hPa | 0 mm | - | 33 W/m² | - |
| 1777503552 | 8.33° C | 99% | 1011.2 hPa | 0 mm | - | 14 W/m² | - |
| 1777503249 | 8.33° C | 99% | 1011.2 hPa | 0 mm | - | 19 W/m² | - |
| 1777502946 | 8.33° C | 99% | 1011.1 hPa | 0 mm | - | 26 W/m² | - |
| 1777502643 | 8.33° C | 99% | 1011.1 hPa | 0 mm | - | 23 W/m² | - |
| 1777502340 | 8.33° C | 99% | 1011.2 hPa | 0 mm | - | 20 W/m² | - |
| 1777502036 | 8.33° C | 99% | 1011.2 hPa | 0 mm | - | 17 W/m² | - |
| 1777501733 | 8.33° C | 99% | 1011.1 hPa | 0 mm | - | 14 W/m² | - |
| 1777501431 | 8.89° C | 99% | 1011.1 hPa | 0 mm | - | 19 W/m² | - |
| 1777501128 | 8.89° C | 99% | 1011.1 hPa | 0 mm | - | 13 W/m² | - |
| 1777500826 | 8.89° C | 99% | 1011 hPa | 0 mm | - | 12 W/m² | - |
| 1777500523 | 8.89° C | 99% | 1010.9 hPa | 0 mm | - | 22 W/m² | - |
| 1777500219 | 8.89° C | 99% | 1010.5 hPa | 0 mm | - | 20 W/m² | - |
| 1777499916 | 8.33° C | 99% | 1010.5 hPa | 0 mm | - | 14 W/m² | - |
| 1777499612 | 8.33° C | 99% | 1010.5 hPa | 0 mm | - | 20 W/m² | - |
| 1777499310 | 8.33° C | 99% | 1010.4 hPa | 0 mm | - | 20 W/m² | - |
| 1777499007 | 8.33° C | 99% | 1010.3 hPa | 0 mm | - | 35 W/m² | - |
| 1777498703 | 8.33° C | 99% | 1010.3 hPa | 0 mm | - | 30 W/m² | - |
| 1777498400 | 8.33° C | 99% | 1010 hPa | 0 mm | - | 40 W/m² | - |
| 1777498097 | 8.33° C | 99% | 1010.1 hPa | 0 mm | - | 59 W/m² | - |
* Rain latest hour (hover to see other rain measurements)
** Current wind speed in m/s (hover to see current wind gust speed)